D3121 Weather Reports


time (UTC)temp
C
wind
direction
speed
KPH
gust
KPH
rain 1hr
cm
rain 24hr
cm
rain mn
cm
humidity
%
barometer
mb
20260504172116 16 225 4.8 9.7 0.00 0.00 0.00 46 1006.1
20260504171116 16 225 6.4 17.7 0.00 0.00 0.00 45 1006.0
20260504170116 16 0 4.8 6.4 0.00 0.00 0.00 46 1006.1
20260504160117 15 270 3.2 6.4 0.00 0.00 0.00 48 1006.7
20260504151116 15 338 6.4 11.3 0.00 0.00 0.00 48 1006.8
20260504150116 15 23 3.2 6.4 0.00 0.00 0.00 48 1006.9
20260504141136 13 293 6.4 11.3 0.00 0.00 0.00 50 1006.8
20260504140116 13 0 4.8 8.0 0.00 0.00 0.00 51 1007.0
20260504120116 10 225 1.6 3.2 0.00 0.00 0.00 67 1008.0
20260504110116 8 0.0 3.2 0.00 0.00 0.00 76 1008.3
20260504100136 6 0.0 0.0 0.00 0.00 0.00 83 1007.9
20260504090116 5 0.0 0.0 0.00 0.00 0.00 82 1007.8
20260504081116 5 0.0 0.0 0.00 0.00 0.00 76 1008.1
20260504080116 5 0.0 0.0 0.00 0.00 0.00 76 1008.2
20260504070116 5 0.0 0.0 0.00 0.00 0.00 84 1007.9
20260504060116 6 0.0 0.0 0.00 0.00 0.00 66 1008.2
20260504050136 5 0.0 0.0 0.00 0.00 0.00 68 1008.1
20260504045115 4 0.0 0.0 0.00 0.00 0.00 64 1008.1
20260504044116 4 0.0 0.0 0.00 0.00 0.00 66 1008.1
20260504043116 4 0.0 0.0 0.00 0.00 0.00 67 1008.1
20260504042116 4 0.0 0.0 0.00 0.00 0.00 68 1008.1
20260504041116 3 0.0 0.0 0.00 0.00 0.00 69 1008.0
20260504040116 3 0.0 0.0 0.00 0.00 0.00 68 1008.0
20260504035116 3 0.0 0.0 0.00 0.00 0.00 70 1008.0
20260504034117 3 0.0 0.0 0.00 0.00 0.00 71 1007.9
20260504033117 3 0.0 0.0 0.00 0.00 0.00 68 1007.8
20260504032116 3 0.0 0.0 0.00 0.00 0.00 74 1007.9
20260504031157 3 0.0 0.0 0.00 0.00 0.00 72 1007.8
20260504030117 3 0.0 0.0 0.00 0.00 0.00 70 1007.7
20260504025117 3 0.0 0.0 0.00 0.00 0.00 75 1007.8
20260504024157 3 0.0 0.0 0.00 0.00 0.00 75 1007.7
20260504023137 4 0.0 0.0 0.00 0.00 0.00 73 1007.8
20260504022137 4 0.0 0.0 0.00 0.00 0.00 71 1007.9
20260504021116 5 0.0 0.0 0.00 0.00 0.00 68 1007.8
20260504020117 5 0.0 0.0 0.00 0.00 0.00 64 1007.7
20260504015116 5 0.0 0.0 0.00 0.00 0.00 64 1007.7
20260504014137 5 0.0 0.0 0.00 0.00 0.00 65 1007.7
20260504013117 5 0.0 0.0 0.00 0.00 0.00 66 1007.5
20260504012117 5 0.0 0.0 0.00 0.00 0.00 66 1007.4
20260504011117 5 0.0 0.0 0.00 0.00 0.00 65 1007.3
20260504010117 5 0.0 0.0 0.00 0.00 0.00 63 1007.2
20260504005116 5 0.0 0.0 0.00 0.00 0.00 60 1007.1
20260504004116 6 0.0 0.0 0.00 0.00 0.00 62 1007.1
20260504003137 6 0.0 0.0 0.00 0.00 0.00 61 1007.1
20260504002117 6 0.0 0.0 0.00 0.00 0.00 59 1006.9
20260504001117 6 0.0 0.0 0.00 0.00 0.00 55 1006.8
20260504000116 6 0.0 0.0 0.00 0.00 0.00 55 1006.7
20260503235116 7 0.0 0.0 0.00 0.00 0.00 55 1006.7
20260503234116 7 0.0 0.0 0.00 0.00 0.00 56 1006.6
20260503233116 7 0.0 0.0 0.00 0.00 0.00 56 1006.5
20260503232117 7 0.0 0.0 0.00 0.00 0.00 54 1006.5
20260503231116 7 248 1.6 1.6 0.00 0.00 0.00 52 1006.5
20260503230136 7 0.0 1.6 0.00 0.00 0.00 54 1006.5
20260503225116 8 270 1.6 3.2 0.00 0.00 0.00 53 1006.4
20260503224137 8 0.0 1.6 0.00 0.00 0.00 53 1006.5
20260503223157 8 338 8.0 11.3 0.00 0.00 0.00 51 1006.5
20260503222117 8 225 1.6 4.8 0.00 0.00 0.00 53 1006.5
20260503221116 8 293 4.8 8.0 0.00 0.00 0.00 53 1006.4
20260503220116 8 0 6.4 12.9 0.00 0.00 0.00 53 1006.3
20260503215116 8 293 6.4 9.7 0.00 0.03 0.00 52 1006.2
20260503214116 8 338 9.7 14.5 0.00 0.03 0.00 50 1006.2
20260503213157 8 315 1.6 4.8 0.00 0.03 0.00 51 1006.2
20260503212116 8 293 4.8 11.3 0.00 0.03 0.00 50 1006.1
20260503211217 8 315 11.3 24.1 0.00 0.03 0.00 49 1006.1
20260503210116 8 338 8.0 12.9 0.00 0.03 0.00 50 1006.0
20260503205116 8 315 9.7 24.1 0.00 0.03 0.00 48 1006.0
20260503204117 8 225 4.8 14.5 0.00 0.03 0.00 49 1006.0
20260503203116 8 338 11.3 17.7 0.00 0.03 0.00 48 1005.9
20260503202157 8 338 6.4 11.3 0.00 0.03 0.00 48 1005.7
20260503201116 8 315 8.0 19.3 0.00 0.03 0.00 46 1005.6
20260503200116 8 248 8.0 20.9 0.00 0.05 0.00 48 1005.7
20260503195117 8 270 6.4 14.5 0.00 0.08 0.00 50 1005.6
20260503194116 8 315 6.4 16.1 0.00 0.10 0.00 46 1005.6
20260503193117 8 270 4.8 9.7 0.00 0.10 0.00 47 1005.7
20260503192116 8 270 9.7 19.3 0.00 0.13 0.00 46 1005.8
20260503191117 8 293 9.7 25.7 0.00 0.18 0.00 49 1005.8
20260503190137 8 293 12.9 25.7 0.00 0.20 0.00 48 1005.9
20260503185117 8 315 4.8 8.0 0.00 0.20 0.00 47 1005.9
20260503184116 8 338 9.7 16.1 0.00 0.20 0.00 46 1005.7
20260503183116 8 315 9.7 17.7 0.00 0.20 0.00 45 1005.8
20260503182136 8 338 11.3 14.5 0.00 0.20 0.00 47 1005.7
20260503181116 8 0 4.8 8.0 0.00 0.20 0.00 48 1005.7
20260503180116 8 338 12.9 22.5 0.00 0.20 0.00 47 1005.6
20260503175116 8 338 17.7 25.7 0.00 0.20 0.00 47 1005.5
20260503174116 8 338 11.3 20.9 0.00 0.20 0.00 47 1005.6
20260503173116 8 293 8.0 16.1 0.00 0.20 0.00 51 1005.6